sat.trackr.live / text

‹ back to catalog

STARLINK-5140

NORAD 56147 · 2023-046BH

PAYLOAD ACTIVE UNKNOWN

§ Identity

Operator
Country
US
Launch date
2023-03-29
Launch site
AFETR
Launch vehicle
Mass (kg)
RCS (m²)

Purposes: comms

External: N2YO · Heavens-Above · Gunter

§ Orbital elements

Epoch: 2026-07-04T14:12:12.592224Z

Period
87.67 min
Inclination
42.9911°
Eccentricity
0.0003736
Mean motion
16.42572594 rev/d
Perigee alt
156.5 km
Apogee alt
161.4 km
Semi-major
6,537.1 km
B*
4.1532e-4
RAAN
147.6827°
Arg perigee
269.9637°
Mean anomaly
90.0829°
Rev number
18,074

§ Raw data

STARLINK-51401 56147U 23046BH  26185.59181241  .08146435  93649-5  41532-3 0  99962 56147  42.9911 147.6827 0003736 269.9637  90.0829 16.42572594180740

JSON: /api/v1/satellites/56147 · /tle

For live sub-satellite position, see the globe view (requires WebGL).

§ Visibility from observer

Set your observer location to see the next 7 days of passes ≥ 10°. The values pass through the URL so the page stays shareable.

No JS? Fill the form by hand. The geolocation button needs JavaScript.